Location: The Saddle
(36.8333°N, 80.3417°W)
Time: 15:30:27
(UTC-05:00)

A-11 Canister half - Pass Details

Date: 10 December 2023
Orbit: 1512 x 1687 km, 47.2° (Epoch: 29 February)

Event Time Altitude Azimuth Distance (km) Brightness Sun altitude
Rises 20:23:42 0° 190° (S) 4,643 11.6 -38.9°
Reaches altitude 10° 20:27:24 10° 177° (S) 3,676 10.9 -39.7°
Enters shadow 20:27:43 11° 176° (S) 3,603 10.9 -39.7°
Maximum altitude 20:34:29 25° 127° (SE) 2,713 - -41.1°
Drops below altitude 10° 20:41:44 10° 76° (ENE) 3,772 - -42.5°
Sets 20:45:32 0° 65° (ENE) 4,788 - -43.3°
